Alajero La Gomera Airport, El Salvador

12:09 PM WEST en Septiembre 20, 2017 (GMT +0100)
Alajero La Gomera Airport

Tiempo Historia de GCGM - Septiembre, 2017

Change the Weather History Date:

Jueves, Septiembre 14, 2017

  Actual Average Record
Temperature  
Temperatura media 73 ° F -  
Temperatura máxima 77 ° F - - ()
Temperatura mínima 69 ° F - - ()
Cooling Degree Days 8    
Growing Degree Days 23 (Base 50)    
Moisture  
Punto de rocío 66 ° F    
Average Humidity 77    
Maximum Humidity 88    
Minimum Humidity 56    
Precipitación  
Precipitación 0.00 pul - - ()
Presión al nivel del mar  
Presión al nivel del mar 30.05 pul    
Viento  
Velocidad del viento 2 mph ()    
Velocidad máxima del viento 8 mph    
Max Gust Speed -    
Visibilidad 6.2 Millas    
Eventos      
T = Trace of Precipitation, MM = Missing Value Source: Averaged Metar Reports

Daily Weather History Graph

Daily Weather History Graph

Search for Another Location

Airport or City:

Trip Planner

Search our weather history database for the weather conditions in past years. The results will help you decide how hot, cold, wet, or windy it might be!

Date:

Astronomía

Sep. 14, 2017 Salida Puesta
Hora real 7:53 AM WEST 8:14 PM WEST
Crepúsculo civil 7:30 AM WEST 8:38 PM WEST
Crepúsculo náutico 7:02 AM WEST 9:05 PM WEST
Crepúsculo astronómico 6:34 AM WEST 9:33 PM WEST
Luna 2:00 AM WEST (9/14) 3:57 PM WEST (9/14)
Horas de luz 13h 08m
Horas de luz
12h 21m
Cuarto menguante, 37% of the Moon is Illuminated
Sep 14
Cuarto menguante
Sep 20
Nueva
Sep 28
Cuarto creciente
Oct 5
Luna llena
Oct 12
Cuarto menguante

Hourly Weather History & Observations

Hora (WEST) Temp. Punto de rocío Humedad Presión Visibilidad Wind Dir Velocidad del viento Velocidad de ráfagas Precip Eventos Condiciones
12:00 AM 69.8 ° F 64.4 ° F 83% 30.12 pul 6.2 mi Sin viento Sin viento - N/A   Desconocido
12:30 AM - - N/A% - - OSO 4.6 mph - N/A   Desconocido
2:00 AM 69.8 ° F 62.6 ° F 78% 30.09 pul 6.2 mi Sin viento Sin viento - N/A   Desconocido
2:30 AM - - N/A% - - Sin viento Sin viento - N/A   Desconocido
3:00 AM 69.8 ° F 62.6 ° F 78% 30.06 pul 6.2 mi Sin viento Sin viento - N/A   Desconocido
3:30 AM - - N/A% - - Variable 1.2 mph - N/A   Desconocido
4:30 AM - - N/A% - - Sin viento Sin viento - N/A   Desconocido
5:00 AM 69.8 ° F 60.8 ° F 73% 30.04 pul 6.2 mi Sin viento Sin viento - N/A   Desconocido
5:30 AM 69.8 ° F 60.8 ° F 73% 30.04 pul 6.2 mi Sin viento Sin viento - N/A   Desconocido
6:00 AM - - N/A% - - NE 3.5 mph - N/A   Desconocido
6:30 AM 69.8 ° F 62.6 ° F 78% 30.04 pul 6.2 mi NNE 3.5 mph - N/A   Desconocido
7:00 AM 71.6 ° F 57.2 ° F 60% 30.04 pul - NNE 3.5 mph - N/A   Despejado
7:30 AM - - N/A% - - NE 3.5 mph - N/A   Desconocido
8:00 AM 69.8 ° F 53.6 ° F 56% 30.04 pul - Variable 2.3 mph - N/A   Despejado
8:30 AM 71.6 ° F 62.6 ° F 73% 30.06 pul - Variable 2.3 mph - N/A   Despejado
9:00 AM 71.6 ° F 66.2 ° F 83% 30.06 pul - Sin viento Sin viento - N/A   Despejado
9:30 AM 71.6 ° F 66.2 ° F 83% 30.06 pul - Variable 1.2 mph - N/A   Despejado
10:00 AM 73.4 ° F 68.0 ° F 83% 30.06 pul - Sin viento Sin viento - N/A   Despejado
11:00 AM 73.4 ° F 68.0 ° F 83% 30.06 pul - Sin viento Sin viento - N/A   Despejado
12:00 PM 75.2 ° F 68.0 ° F 78% 30.09 pul - SO 3.5 mph - N/A   Despejado
12:30 PM 75.2 ° F 68.0 ° F 78% 30.09 pul - SO 4.6 mph - N/A   Despejado
1:00 PM 75.2 ° F 68.0 ° F 78% 30.09 pul - SO 5.8 mph - N/A   Despejado
1:30 PM 77.0 ° F 68.0 ° F 74% 30.06 pul - SO 5.8 mph - N/A   Despejado
2:00 PM 77.0 ° F 68.0 ° F 74% 30.06 pul - OSO 6.9 mph - N/A   Despejado
2:30 PM 77.0 ° F 68.0 ° F 74% 30.06 pul - Variable 2.3 mph - N/A   Despejado
3:00 PM 75.2 ° F 66.2 ° F 73% 30.06 pul - Variable 1.2 mph - N/A   Despejado
3:30 PM 77.0 ° F 66.2 ° F 69% 30.06 pul - ESE 3.5 mph - N/A   Despejado
4:00 PM 77.0 ° F 64.4 ° F 65% 30.04 pul - Sin viento Sin viento - N/A   Despejado
4:30 PM 77.0 ° F 62.6 ° F 61% 30.04 pul - Variable 2.3 mph - N/A   Despejado
5:00 PM 77.0 ° F 66.2 ° F 69% 30.04 pul - SSO 4.6 mph - N/A   Despejado
6:00 PM 77.0 ° F 68.0 ° F 74% 30.04 pul - SO 8.1 mph - N/A   Despejado
6:30 PM 75.2 ° F 69.8 ° F 83% 30.04 pul 6.2 mi SO 8.1 mph - N/A   Desconocido
7:00 PM 75.2 ° F 69.8 ° F 83% 30.01 pul 6.2 mi OSO 6.9 mph - N/A   Desconocido
7:30 PM 73.4 ° F 69.8 ° F 88% 30.04 pul - SO 6.9 mph - N/A   Despejado
8:00 PM 73.4 ° F 69.8 ° F 88% 30.04 pul 6.2 mi SO 3.5 mph - N/A   Desconocido
8:30 PM 73.4 ° F 69.8 ° F 88% 30.04 pul 6.2 mi SO 3.5 mph - N/A   Desconocido
9:00 PM 73.4 ° F 68.0 ° F 83% 30.04 pul 6.2 mi Sin viento Sin viento - N/A   Desconocido
10:00 PM 73.4 ° F 69.8 ° F 88% 30.04 pul 6.2 mi Variable 1.2 mph - N/A   Desconocido
10:30 PM 73.4 ° F 68.0 ° F 83% 30.04 pul 6.2 mi Sin viento Sin viento - N/A   Desconocido
11:30 PM 73.4 ° F 68.0 ° F 83% 30.04 pul 6.2 mi Sin viento Sin viento - N/A   Desconocido